{"data":{"norad_id":62624,"intl_designator":"2025-009R","name":"FLOCK 4G-7","alt_names":[],"object_type":"PAYLOAD","status":"ACTIVE","operator":null,"country":"US","launch_date":"2025-01-14","launch_site_code":"AFWTR","launch_vehicle":null,"mission":null,"orbit_class":"UNKNOWN","rcs_meters":null,"size_class":null,"mass_kg":null,"dimensions":null,"purposes":["earth_obs"],"wikipedia_slug":null,"has_3d_model":false,"image_url":null,"decayed_at":null,"tle_current":{"epoch":"2026-05-25T03:46:25.020192Z","epoch_age_seconds":64764,"freshness":"FRESH","line1":"1 62624U 25009R   26145.15723403  .00011423  00000+0  41105-3 0  9993","line2":"2 62624  97.3944 226.6139 0003718  66.4830 293.6800 15.28755246 75389","mean_motion":15.28755246,"eccentricity":0.0003718,"inclination_deg":97.3944,"raan_deg":226.6139,"arg_perigee_deg":66.483,"mean_anomaly_deg":293.68,"bstar":0.00041105,"rev_number":7538,"period_min":94.194280200691,"perigee_km":476.98255995075,"apogee_km":482.08192279864,"semimajor_km":6857.6692413747,"source":"CELESTRAK","updated_at":"2026-05-25T13:38:13.336381Z"}}}